Regional Weather Roundup
Issued by NWS Sterling, VA

Home | Current Version | Previous Version | Graphics & Text | Print | Product List | Glossary On
Versions: 1 2 3 4 5 6 7 8 9 10 11 12 13 14 15 16 17 18 19 20 21 22 23 24 25 26 27 28 29 30 31 32 33 34 35 36 37 38 39 40 41 42 43 44 45 46 47 48 49 50
000
ASUS41 KLWX 281410
RWRLWX

REGIONAL WEATHER ROUNDUP
NATIONAL WEATHER SERVICE BALTIMORE MD/WASHINGTON DC
900 AM EST SUN DEC 28 2014

Note: "FAIR" indicates few or no clouds below 12,000 feet
with no significant weather and/or obstructions to visibility.
 TC=TEMPERATURE CELSIUS

 * =Non NWS site. Station does not report precipitation (e.g. rain,
    snow, etc.), thunder, or fog.

DCZ001-MDZ009-015-VAZ040>042-051-053>054-281500-
WASHINGTON METRO

CITY           SKY/WX    TMP DP  RH WIND       PRES   REMARKS
WASHINGTON NAT CLOUDY    50  39  66 S5        29.98R
DULLES         CLOUDY    45  39  79 CALM      29.98R
ANDREWS AFB    CLOUDY    50  40  69 SW3       29.97S
FT BELVOIR     CLOUDY    46  41  81 CALM      29.99S
QUANTICO       CLOUDY    48  40  73 CALM      30.00R
COLLEGE PARK*  CLOUDY    46  43  87 CALM      29.97R
LEESBURG*      CLOUDY    45  41  87 CALM      29.98R
MANASSAS*      CLOUDY    48  43  81 CALM      29.98R
GAITHERSBURG*  CLOUDY    46  39  76 CALM      30.00S

$$

MDZ006>007-011-014-281500-
BALTIMORE METRO

CITY           SKY/WX    TMP DP  RH WIND       PRES   REMARKS
BWI AIRPORT    CLOUDY    44  39  82 CALM      29.95S
MD SCIENCE CTR   N/A     46  40  79 MISG      29.96R
MARTIN STATE   CLOUDY    45  45 100 CALM      29.97S
ANNAPOLIS      CLOUDY    45  40  82 CALM      29.97R
FORT MEADE*    CLOUDY    43  39  87 CALM      29.98S

$$

MDZ012-015-019>023-281500-
MARYLAND EASTERN SHORE

CITY           SKY/WX    TMP DP  RH WIND       PRES   REMARKS
OCEAN CITY     PTSUNNY   51  42  71 SW13      29.96F
SALISBURY      PTSUNNY   55  41  59 W10       29.99R
BAY BRIDGE AP* LGT RAIN  46  41  81 CALM      29.98R
CAMBRIDGE*     CLOUDY    54  41  62 CALM      29.98R
EASTON*        PTSUNNY   52  45  76 SW6       30.01R

$$

MDZ017>025-281500-
SOUTHERN MARYLAND

CITY           SKY/WX    TMP DP  RH WIND       PRES   REMARKS
PATUXENT RIVER CLOUDY    55  38  52 SW15G23   29.97R
ST INIGOES     CLOUDY    54  39  57 SW6       29.98R
LEONARDTOWN*   CLOUDY    54  37  54 SW9       29.99R

$$

MDZ003>005-281500-
NORTH CENTRAL MARYLAND

CITY           SKY/WX    TMP DP  RH WIND       PRES   REMARKS
FREDERICK*     CLOUDY    48  37  66 CALM      29.99R
HAGERSTOWN APT PTSUNNY   52  40  63 SE7       29.96R
WESTMINSTER*   CLOUDY    48  37  66 W7        29.95R

$$

MDZ501>502-281500-
WESTERN MARYLAND

CITY           SKY/WX    TMP DP  RH WIND       PRES   REMARKS
OAKLAND*       FOG       39 N/A N/A W8G16     29.97R VSB 1/2
CUMBERLAND*    CLOUDY    54  43  66 W10       30.02R

$$

VAZ025>031-281500-
SHENANDOAH VALLEY

CITY           SKY/WX    TMP DP  RH WIND       PRES   REMARKS
WINCHESTER*    CLOUDY    50  34  53 CALM      29.96R
FRONT ROYAL*   PTSUNNY   48  36  61 W3        29.95R
LURAY*         FAIR      52  37  58 CALM      29.96R
NEW MARKET*    PTSUNNY   46  38  75 CALM      29.96R
STAUNTON*      CLOUDY    56  42  60 SW7       29.98S
WAYNESBORO*    FAIR      54  40  59 W5        29.98R

$$

WVZ021-048>050-054>055-281500-
EASTERN WEST VIRGINIA PANHANDLE

CITY           SKY/WX    TMP DP  RH WIND       PRES   REMARKS
MARTINSBURG    CLOUDY    56  39  53 W14       29.96R
PETERSBURG*    PTSUNNY   56  40  55 W5        29.97R

$$

VAZ036>039-050-281500-
CENTRAL FOOTHILLS

CITY           SKY/WX    TMP DP  RH WIND       PRES   REMARKS
CHARLOTTESVILL CLOUDY    51  37  58 S8        29.96R
CULPEPER*      CLOUDY    48  43  81 CALM      29.97R
ORANGE*        CLOUDY    52  39  62 S8        29.98S
GORDONSVILLE*  FAIR      48  38  68 SW3       29.97R
WARRENTON*     FAIR      50  45  81 NE5       29.97R

$$

VAZ055>057-281500-
NORTH AND CENTRAL PIEDMONT

CITY           SKY/WX    TMP DP  RH WIND       PRES   REMARKS
FREDERICKSBRG* CLOUDY    56  40  55 SW5       29.96S
STAFFORD*      CLOUDY    54  37  52 CALM      30.01R

$$

NCZ024-NYZ072-PAZ021-071-VAZ022-071-281500-
OTHER REGIONAL OBSERVATIONS

CITY           SKY/WX    TMP DP  RH WIND       PRES   REMARKS
NEW YORK CITY  LGT RAIN  46  41  82 CALM      29.92S
PHILADELPHIA   LGT RAIN  44  39  82 SW7       29.96R
PITTSBURGH     LGT RAIN  38  36  92 N14       30.03R FOG
ROANOKE        CLOUDY    53  34  48 E3        30.02S
RICHMOND       CLOUDY    55  40  56 SW10      30.02R
RALEIGH        PTSUNNY   56  49  77 SW15      30.08R

$$

ANZ530>537-281500-
MARINE OBSERVATIONS

STATION/POSITION TIME  TEMP    WIND        PRES
                       AIR SEA DIR/SP/G
                 (UTC) (F)     (DEG/KT/KT) (MB)
THOMAS PT LIGHT  1400   47 43  180/  4/  4 1016.0R
BALT KEY BRIDGE  1400   45     220/  3/  3 1014.5R
COVE POINT       1400   54     290/  6/  9 1014.8R
LEWISETTA        1400   55 44  230/ 16/ 20 1014.4R
SOLOMONS ISLAND  1400      44                N/A
PINEY POINT      1400          360/  4/  5   N/A

$$




USA.gov is the U.S. government's official web portal to all federal, state and local government web resources and services.